SCP
0 0 0 0 0 0 0 0 0 0 0 0 0 0 0 0 0 0 0 0 0 0 0 0 0 0 0 0 0 1 1 1 1 1 1 1 1 0 0 0 1 1 1 1 1 1 1 1 1
0 0 0 0 0 0 0 0 0 0 0 0 0 0 0 0 0 0 0 0 0 0 0 0 1 0 0 0 0 0 1 1 1 1 1 1 1 1 1 1 1 1 1 1 1 1 1 1 1
0 0 0 0 0 0 0 0 0 0 0 0 0 0 0 0 0 0 0 0 0 0 0 1 1 1 0 0 0 0 1 1 1 1 1 1 1 1 1 1 1 1 1 1 1 1 1 1 1
0 0 0 0 0 0 0 0 0 0 0 0 0 0 0 0 0 0 0 0 0 0 0 1 1 1 1 0 0 0 0 0 1 1 1 1 1 1 1 1 1 1 1 1 1 1 1 1 1
0 0 0 0 0 0 0 0 0 0 0 0 0 0 0 0 0 0 0 0 0 0 0 1 1 1 1 0 0 1 1 1 0 0 0 0 1 1 1 1 1 1 1 1 1 1 0 0 1
0 0 0 0 0 0 0 0 0 0 0 0 0 0 0 0 0 0 0 0 0 0 0 1 1 1 1 1 1 1 1 1 1 0 0 0 0 0 0 1 1 1 1 1 1 1 1 1 0
0 0 0 0 0 0 0 0 0 0 0 0 0 0 0 0 0 0 0 0 0 0 0 0 1 1 1 1 1 1 1 1 1 1 1 0 0 0 0 0 1 1 1 1 0 0 1 0 0
0 0 0 0 0 0 0 0 0 0 0 0 0 0 0 0 0 0 0 0 0 0 0 0 1 1 1 1 1 1 1 1 1 1 1 1 0 0 0 0 0 1 1 0 0 0 0 0 0
0 0 0 0 0 0 0 0 1 1 0 0 0 0 0 0 1 1 1 1 0 0 0 0 0 1 1 0 1 1 1 1 1 1 1 0 0 0 0 0 0 0 0 0 0 0 0 0 0
0 0 0 0 0 0 0 0 0 1 1 1 0 0 1 1 1 1 1 1 0 0 0 0 0 0 0 0 0 0 0 0 0 0 0 0 0 0 0 0 0 0 0 0 0 0 0 0 0
0 0 0 0 0 0 0 0 0 0 1 0 0 0 1 1 1 1 1 0 0 0 0 0 0 0 0 0 0 0 0 0 0 0 0 0 0 0 0 0 0 0 0 0 0 0 0 0 0
0 0 0 0 0 0 0 0 0 0 1 0 0 0 1 1 1 1 0 0 0 0 0 0 0 0 0 0 0 0 0 0 0 0 0 0 0 0 0 0 0 0 0 0 0 0 0 0 0
0 0 0 0 0 0 0 0 0 0 1 1 1 1 0 0 1 1 0 0 0 0 0 0 0 0 0 0 0 0 0 0 0 0 0 0 0 0 0 0 0 0 0 0 0 0 0 0 0
0 0 0 0 0 0 0 0 0 1 1 1 1 1 0 0 0 0 0 0 1 1 0 0 0 0 0 0 0 0 0 0 0 0 0 0 0 0 0 0 0 0 0 0 0 0 0 0 0
0 0 0 0 0 0 0 0 0 1 1 1 1 1 0 0 0 1 1 1 1 1 1 0 0 0 0 0 0 0 0 0 0 0 0 0 0 0 0 0 0 0 0 0 0 0 0 0 0
0 0 0 0 0 0 0 0 0 1 1 1 1 1 1 0 0 1 1 1 1 1 1 1 1 0 0 0 0 0 0 0 0 0 0 0 0 0 0 0 0 0 0 0 0 0 0 0 0
0 0 0 0 0 0 0 0 0 1 1 1 1 1 1 0 0 1 1 1 1 1 1 1 1 1 0 0 0 0 0 0 0 0 0 0 0 0 0 0 0 0 0 0 0 0 0 0 0
0 0 0 0 0 0 0 0 0 1 1 1 1 1 1 0 0 0 1 1 1 1 1 1 1 1 1 0 0 0 0 0 0 0 0 0 0 0 0 0 0 0 0 0 0 0 0 0 0
0 0 0 0 0 0 0 0 0 0 1 1 1 1 1 1 1 1 1 1 1 1 1 1 1 1 1 0 0 0 0 0 0 0 0 0 0 0 0 0 0 0 0 0 0 0 0 0 0
0 0 0 0 0 0 0 0 0 0 0 1 0 0 0 1 1 1 1 1 1 1 0 1 1 1 1 0 0 0 0 0 0 0 0 0 0 0 0 0 0 0 0 0 0 0 0 0 0
0 0 0 0 0 0 0 0 0 0 0 0 0 0 0 1 1 1 1 1 1 1 0 0 0 1 1 0 0 0 0 0 0 0 0 0 0 0 0 0 0 0 0 0 0 0 0 0 0
0 0 0 0 0 0 0 0 0 0 0 0 0 0 0 1 1 1 1 1 1 0 0 0 0 0 0 0 0 0 0 0 0 0 0 0 0 0 0 0 0 0 0 0 0 0 0 0 0
0 0 0 0 0 0 0 0 0 0 0 0 0 0 0 0 1 1 1 1 1 0 0 0 0 0 0 0 0 0 0 0 0 0 0 0 0 0 0 0 0 0 0 0 0 0 0 0 0
0 0 0 0 0 0 0 0 0 0 0 0 0 0 0 0 1 1 1 1 1 0 0 0 0 0 0 0 0 0 0 0 0 0 0 0 0 0 0 0 0 0 0 0 0 0 0 0 0
0 0 0 0 0 0 0 0 0 0 0 0 0 0 0 0 1 1 1 1 1 0 0 0 0 0 0 0 0 0 0 0 0 0 0 0 0 0 0 0 0 0 0 0 0 0 0 0 0
0 0 0 0 0 0 0 0 0 0 0 0 0 0 0 0 0 0 0 0 0 0 0 0 0 0 0 0 0 0 0 0 0 0 0 0 0 0 0 0 0 0 0 0 0 0 0 0 0
0 0 0 0 0 0 0 0 0 0 0 0 0 0 0 0 0 0 0 0 0 0 0 0 0 0 0 0 0 0 0 0 0 0 0 0 0 0 0 0 0 0 0 0 0 0 0 0 0
0 0 0 0 0 0 0 0 0 0 0 0 0 0 0 0 0 0 0 0 0 0 0 0 0 0 0 0 0 0 0 0 0 0 0 0 0 0 0 0 0 0 0 0 0 1 1 0 0
0 0 0 0 0 0 0 0 0 0 0 0 0 0 0 0 0 0 0 0 0 0 0 0 0 0 0 0 0 0 0 0 0 0 0 0 0 0 0 0 0 0 0 0 0 1 1 1 1
0 0 0 0 0 0 0 0 0 0 0 0 0 0 0 0 0 0 0 0 0 0 0 0 0 0 0 0 0 0 0 0 0 0 0 0 0 0 0 0 0 0 0 0 0 1 1 1 1
Wind_Speed
3 2 2 4 7 7 3 2 0 1 2 2 3 5 5 4 2 2 1 1 1 1 0 1 4 6 6 7 8 8 9 9 9 8 8 9 9 10 10 10 11 11 11 11 11 11 11 12 11
1 1 4 5 6 4 2 1 1 1 3 3 4 4 5 3 2 3 0 1 2 2 1 2 5 6 7 7 8 8 9 9 9 9 9 9 9 10 10 10 10 11 11 11 11 11 11 11 11
0 3 4 5 4 3 2 0 2 3 3 2 3 4 3 2 2 2 1 3 3 2 2 2 5 6 7 7 8 8 9 9 9 9 9 10 9 10 9 9 10 10 10 11 11 11 11 11 11
3 5 6 6 4 0 2 1 2 3 3 4 3 4 2 2 1 2 3 4 4 3 2 2 4 5 6 7 7 8 8 9 9 9 9 9 9 9 9 9 9 9 10 11 11 11 11 11 10
4 5 6 4 2 1 1 1 2 3 2 3 3 4 2 3 3 5 5 4 4 3 2 2 4 6 6 7 8 8 8 8 9 9 8 8 8 8 8 8 9 9 10 11 11 11 11 10 10
5 5 5 3 1 2 1 1 3 4 3 3 3 3 1 1 3 4 5 4 4 3 3 3 5 6 6 7 8 8 8 9 9 9 9 9 9 8 8 8 9 9 10 10 10 10 11 10 10
5 5 4 3 1 1 0 1 3 3 3 2 3 4 1 0 2 4 4 4 4 3 3 3 3 4 6 7 7 8 8 9 9 9 9 9 9 10 9 9 9 9 9 10 10 10 10 10 10
4 5 4 2 2 1 0 2 2 3 2 2 3 5 3 3 3 5 5 4 4 4 4 3 4 4 4 3 6 7 8 8 8 8 9 9 9 9 9 9 9 9 10 10 10 10 11 11 11
4 6 2 3 4 2 0 2 2 2 4 3 1 2 3 6 6 6 4 3 3 3 3 3 3 3 3 3 5 5 6 7 7 6 8 8 5 5 6 8 10 10 10 10 11 10 11 10 10
5 4 3 3 4 3 1 2 2 3 3 2 2 3 5 7 7 6 5 3 2 1 1 1 2 2 3 3 3 3 3 4 4 4 5 4 4 4 6 8 9 9 9 10 10 11 10 8 5
3 3 1 1 2 3 2 2 2 5 1 3 4 5 5 6 6 5 4 3 3 2 1 1 1 2 2 2 2 2 2 3 3 4 4 3 3 3 4 3 4 5 6 5 6 6 4 4 3
3 1 2 1 2 2 2 2 2 2 2 2 5 7 6 6 5 5 4 3 2 2 1 1 1 2 2 2 2 2 2 2 2 3 3 3 2 3 3 2 3 3 2 3 3 3 4 4 4
2 1 1 2 3 3 3 2 2 1 2 4 6 6 6 5 4 3 3 3 3 3 2 1 2 2 1 2 1 2 1 1 1 2 2 3 2 2 2 2 2 3 2 3 3 3 4 4 4
1 2 2 2 2 2 3 2 2 1 3 5 5 4 4 4 3 2 2 3 3 3 3 2 2 2 2 1 1 1 1 1 1 1 1 2 2 2 2 2 2 3 2 2 2 3 3 3 3
3 4 4 2 1 1 3 3 1 1 4 5 4 3 2 2 2 3 3 3 3 3 3 3 3 2 2 2 1 1 1 1 1 1 1 1 2 2 2 2 2 2 2 3 3 3 3 3 3
4 4 1 3 0 1 3 2 3 1 5 4 2 1 1 1 1 1 1 2 2 2 2 2 3 3 2 2 1 1 1 1 1 1 1 1 1 2 2 2 1 2 2 2 2 2 3 3 3
4 1 1 3 1 1 3 3 2 1 4 4 3 2 1 0 1 1 1 1 2 2 2 2 2 2 2 2 1 1 1 1 0 1 1 1 1 2 2 1 1 2 2 2 2 2 2 2 2
2 1 1 3 2 2 2 3 2 1 3 3 2 2 2 2 2 1 0 1 2 2 3 2 2 1 2 1 1 1 1 1 0 1 1 1 1 2 2 1 2 2 2 2 2 2 3 2 2
2 2 2 4 2 2 3 4 3 1 1 1 2 2 3 4 2 1 1 2 3 3 2 2 2 1 1 1 1 1 0 0 0 0 1 1 1 2 2 2 2 2 2 1 2 2 2 2 1
2 1 2 3 1 2 2 4 3 2 3 4 4 4 4 2 0 1 1 2 2 2 1 1 2 1 1 1 1 1 1 1 0 0 1 1 2 2 2 2 1 2 2 2 2 2 1 1 2
0 3 3 3 3 2 0 4 3 1 1 1 2 3 3 4 4 2 2 2 2 1 1 1 1 1 1 1 1 2 2 2 2 1 1 1 1 1 2 2 2 2 2 1 1 1 2 1 1
3 3 3 1 1 2 0 3 6 2 2 2 3 3 3 3 3 2 2 2 2 2 1 1 1 1 1 2 2 3 2 1 1 1 0 1 0 0 1 2 2 2 1 1 1 1 1 2 1
3 1 1 1 1 1 1 1 7 2 3 4 4 4 4 4 4 3 3 3 2 2 1 1 1 1 1 1 2 3 2 1 0 0 0 0 1 1 0 1 2 2 1 1 1 1 1 1 2
1 4 4 4 3 1 3 3 6 3 4 4 4 4 4 3 3 2 2 2 1 1 1 1 1 1 1 1 1 2 3 2 1 0 0 0 1 1 1 0 1 2 1 1 1 1 2 1 2
4 5 4 4 3 4 2 2 7 5 4 4 4 5 4 4 3 2 2 1 1 1 1 1 1 1 1 1 1 1 2 2 2 1 1 0 0 1 1 1 0 1 1 2 1 2 1 1 2
2 6 5 3 4 5 2 4 6 4 3 2 2 2 3 3 3 3 3 2 2 2 1 1 1 0 0 0 0 1 1 1 1 1 1 1 1 1 1 0 0 0 0 1 1 1 1 1 1
3 2 4 4 1 3 5 5 6 2 2 2 1 1 1 2 3 3 2 2 2 2 3 3 2 1 1 1 0 0 1 1 1 1 1 1 1 1 1 1 1 1 1 0 1 1 1 1 1
3 6 4 4 2 3 5 4 4 4 4 3 2 1 2 1 1 2 2 2 2 2 3 2 3 3 2 2 1 1 1 1 1 1 1 1 1 1 1 1 1 1 1 0 1 1 0 1 0
2 3 3 3 4 4 3 6 4 4 3 3 3 2 2 2 2 3 3 2 2 2 2 3 3 2 2 2 2 1 1 1 0 0 1 1 1 0 0 1 1 1 1 1 1 1 1 1 0
3 4 6 4 3 3 3 7 3 3 2 2 2 2 2 2 2 2 2 1 1 1 2 3 3 3 3 3 2 2 2 1 1 1 1 1 1 1 1 1 1 1 1 1 1 1 1 1 1
Wind_Direction
360 51 68 55 54 53 52 360 23 52 59 34 55 75 88 81 88 121 276 141 120 115 31 65 80 81 78 78 76 72 68 69 71 71 72 75 78 75 73 72 71 71 72 72 73 72 70 70 70
357 60 53 57 74 69 9 332 79 103 143 140 73 72 73 68 75 106 131 166 121 112 65 74 87 85 79 78 78 74 70 69 70 71 73 77 80 79 77 72 70 72 73 73 73 74 72 71 69
42 51 71 65 79 126 145 312 119 86 94 93 73 55 74 80 109 147 193 144 108 89 58 64 87 86 83 81 80 77 74 71 70 72 74 77 76 78 78 74 72 74 74 74 73 73 71 73 72
67 44 53 67 72 151 169 182 142 116 66 56 91 66 54 32 134 148 127 120 106 82 53 53 83 84 83 81 80 77 73 70 70 71 73 73 74 76 77 75 74 75 75 75 75 73 71 74 74
61 69 61 58 43 358 31 121 124 100 77 59 90 94 53 10 80 111 116 113 112 89 52 47 83 83 81 78 78 77 73 71 70 69 69 70 71 72 72 73 76 76 75 73 73 72 70 71 72
55 65 79 84 36 3 21 73 90 85 89 88 97 102 75 55 104 120 112 109 110 99 66 42 70 79 79 78 76 76 75 73 70 68 68 67 65 66 68 69 73 74 72 69 69 70 68 68 69
90 85 105 122 92 8 33 76 98 107 105 130 128 108 112 140 145 120 104 96 84 77 64 41 40 53 63 73 77 77 75 73 69 67 67 65 63 63 64 64 70 72 70 68 68 69 67 65 67
109 96 89 113 133 241 313 74 81 101 115 106 116 135 187 196 132 99 85 76 73 63 54 44 40 43 43 48 68 73 74 73 69 68 67 63 56 55 57 59 66 67 67 66 66 65 64 64 63
80 77 123 183 170 205 129 87 58 65 92 72 73 157 170 135 121 105 89 72 69 67 46 47 44 40 42 51 58 61 68 66 63 60 63 57 41 37 42 53 62 63 62 61 61 60 60 59 58
77 107 195 200 177 165 123 105 128 85 69 60 55 62 103 124 132 131 137 139 135 128 71 54 54 49 48 54 52 40 46 47 49 49 47 46 43 37 43 44 54 57 57 55 56 56 53 51 45
92 144 177 145 159 139 114 87 101 116 116 198 177 154 136 137 142 149 156 158 171 167 126 80 78 68 65 57 60 48 46 45 46 48 48 47 45 40 38 34 32 37 45 42 45 47 43 48 47
90 80 137 136 109 111 126 116 89 124 233 208 162 147 143 148 161 170 169 173 160 138 134 115 110 96 79 75 70 67 62 56 49 42 47 53 49 43 34 37 29 33 35 41 42 48 42 46 47
76 47 48 95 84 96 92 78 109 360 29 92 112 126 147 158 167 173 170 172 160 165 169 155 134 121 104 86 79 77 69 68 65 54 49 61 61 47 40 34 38 38 40 46 46 50 48 43 41
98 77 50 53 70 68 96 58 79 322 91 104 122 143 156 163 168 165 174 181 181 181 182 172 155 152 131 124 117 109 91 80 74 63 56 70 77 67 54 44 40 37 40 47 54 52 54 46 45
81 67 29 16 65 111 98 27 293 206 123 123 139 148 154 171 172 187 198 193 190 187 183 179 170 151 143 151 156 139 127 105 92 78 68 75 88 92 82 64 45 32 40 53 58 48 49 51 46
55 62 19 305 58 133 115 259 287 156 135 144 156 154 167 227 245 248 199 172 164 156 169 188 174 152 156 160 162 149 127 117 108 97 86 79 90 98 93 82 56 40 48 55 63 52 51 43 41
39 71 265 300 293 120 139 240 294 143 149 164 177 180 185 299 345 345 79 135 137 135 133 146 164 159 160 152 142 127 109 106 115 100 88 76 84 94 98 96 71 60 61 56 60 51 57 49 34
216 214 261 266 288 126 167 250 294 195 168 189 200 203 207 221 246 252 107 114 110 104 98 92 92 127 140 127 99 70 74 59 62 97 124 114 100 96 96 84 68 67 69 54 51 55 46 50 37
162 175 252 264 246 158 206 251 275 234 168 212 230 220 223 232 249 97 96 95 89 81 84 83 80 74 104 100 128 142 183 252 339 54 106 115 113 106 102 89 76 77 78 72 70 68 59 38 26
127 160 276 295 324 168 218 270 279 200 209 211 210 214 220 230 328 102 109 91 98 103 96 89 90 96 112 143 143 154 156 168 202 19 58 88 113 125 123 118 115 102 89 70 66 74 76 35 35
202 197 232 258 346 24 32 313 307 273 223 219 212 213 211 204 207 200 173 158 129 126 160 179 167 120 78 84 95 72 53 36 30 20 16 8 93 128 132 140 139 125 123 133 115 104 110 99 17
260 243 217 203 87 289 90 287 293 286 298 252 238 225 220 215 195 179 174 171 183 193 173 128 111 86 84 93 110 125 128 125 257 250 247 332 33 114 142 139 138 139 138 146 171 122 128 123 98
231 298 126 132 167 330 343 218 288 330 296 270 244 227 223 207 194 181 181 189 195 184 162 124 92 74 75 89 128 129 113 133 108 25 87 43 10 13 92 141 146 150 160 166 151 112 109 127 142
140 53 51 49 68 296 245 188 282 254 240 259 240 225 217 196 183 180 173 156 136 99 89 68 83 62 69 79 93 142 139 130 114 135 170 330 339 332 322 183 169 172 170 173 169 141 121 118 119
73 76 27 358 4 260 260 198 252 255 244 232 234 224 211 188 173 167 157 161 158 132 116 93 105 37 32 69 67 161 161 160 167 199 206 196 313 318 297 283 199 176 181 173 150 134 136 132 124
155 135 153 212 242 281 302 234 256 269 278 257 226 200 180 180 183 184 192 188 193 192 188 179 182 216 292 94 85 110 145 161 187 193 212 210 219 241 245 237 197 62 141 159 150 140 164 140 147
137 158 166 143 211 278 279 284 303 336 338 343 17 87 183 194 194 200 200 190 194 203 205 201 202 218 235 225 185 98 123 161 196 208 214 241 254 247 224 186 152 106 90 132 147 144 196 152 159
139 145 104 125 171 271 288 279 269 297 298 319 338 301 262 245 216 218 211 208 208 208 204 198 197 207 212 205 208 219 214 214 200 173 217 267 295 280 209 191 156 130 91 89 141 153 187 140 177
108 113 123 134 162 179 266 272 236 243 255 251 264 264 232 225 226 226 223 217 210 202 194 197 205 210 210 206 210 213 208 211 181 180 246 249 254 268 184 205 179 173 159 141 121 175 177 174 224
175 175 152 163 219 189 210 267 284 263 268 253 276 285 267 237 235 230 215 194 201 212 214 210 212 211 218 209 197 203 192 174 187 229 250 259 250 223 187 169 169 193 183 169 162 191 209 200 222